JAL130 RJOO-RJTT

Flight info

Callsign JAL130
Flight time 0h 41m
Altitude 27000
Route ASUKA4 SHTLE Y71 XAC XAC1A
Aircraft B77W/H-SDE1E2E3FGHIJ2J3J4J5M1RWXY/LB1D1

Departure

Time 2026-04-30 09:22
Airport Osaka Itami International Airport (RJOO)

Arrival

Time 2026-04-30 10:03
Airport Tokyo Haneda International Airport (RJTT)
Time Latitude Longitude Altitude Speed Heading
2026-04-30 08:44 34.79125 135.43913 55 ft 0 kts 67°
2026-04-30 09:10 34.79119 135.43897 47 ft 2 kts 67°
2026-04-30 09:10 34.79113 135.43879 47 ft 2 kts 67°
2026-04-30 09:11 34.79106 135.43860 47 ft 2 kts 67°
2026-04-30 09:11 34.79100 135.43842 50 ft 2 kts 66°
2026-04-30 09:11 34.79093 135.43824 48 ft 2 kts 66°
2026-04-30 09:11 34.79087 135.43805 47 ft 2 kts 67°
2026-04-30 09:12 34.79083 135.43786 47 ft 2 kts 107°
2026-04-30 09:12 34.79090 135.43770 47 ft 1 kts 133°
2026-04-30 09:12 34.79092 135.43768 47 ft 0 kts 135°
2026-04-30 09:14 34.79090 135.43769 47 ft 1 kts 135°
2026-04-30 09:15 34.79076 135.43786 47 ft 5 kts 139°
2026-04-30 09:15 34.79037 135.43805 49 ft 7 kts 162°
2026-04-30 09:15 34.78986 135.43837 53 ft 9 kts 143°
2026-04-30 09:15 34.78934 135.43871 51 ft 8 kts 163°
2026-04-30 09:16 34.78877 135.43892 49 ft 9 kts 164°
2026-04-30 09:16 34.78822 135.43915 51 ft 9 kts 153°
2026-04-30 09:16 34.78776 135.43961 49 ft 9 kts 136°
2026-04-30 09:16 34.78721 135.44027 51 ft 14 kts 135°
2026-04-30 09:17 34.78642 135.44123 48 ft 18 kts 135°
2026-04-30 09:17 34.78547 135.44239 51 ft 20 kts 134°
2026-04-30 09:17 34.78476 135.44322 51 ft 9 kts 143°
2026-04-30 09:17 34.78413 135.44335 49 ft 9 kts 178°
2026-04-30 09:18 34.78349 135.44335 52 ft 10 kts 180°
2026-04-30 09:18 34.78261 135.44335 51 ft 15 kts 180°
2026-04-30 09:18 34.78175 135.44343 51 ft 9 kts 158°
2026-04-30 09:18 34.78125 135.44396 49 ft 10 kts 135°
2026-04-30 09:19 34.78068 135.44467 49 ft 14 kts 134°
2026-04-30 09:19 34.77993 135.44558 49 ft 17 kts 135°
2026-04-30 09:19 34.77902 135.44668 51 ft 20 kts 135°
2026-04-30 09:19 34.77796 135.44794 48 ft 22 kts 137°
2026-04-30 09:20 34.77693 135.44910 47 ft 17 kts 149°
2026-04-30 09:20 34.77585 135.44974 53 ft 17 kts 156°
2026-04-30 09:20 34.77501 135.45019 51 ft 8 kts 160°
2026-04-30 09:20 34.77449 135.45010 50 ft 8 kts 212°
2026-04-30 09:21 34.77426 135.44952 51 ft 8 kts 267°
2026-04-30 09:21 34.77440 135.44922 51 ft 0 kts 312°
2026-04-30 09:21 34.77449 135.44909 51 ft 15 kts 313°
2026-04-30 09:21 34.77746 135.44553 48 ft 103 kts 316°
2026-04-30 09:22 34.78433 135.43717 52 ft 172 kts 313°
2026-04-30 09:22 34.79354 135.42574 489 ft 189 kts 317°
2026-04-30 09:22 34.80217 135.41350 1350 ft 196 kts 305°
2026-04-30 09:22 34.80633 135.39702 1912 ft 211 kts 268°
2026-04-30 09:23 34.80201 135.38040 2494 ft 210 kts 221°
2026-04-30 09:23 34.79034 135.37183 3182 ft 187 kts 179°
2026-04-30 09:23 34.77842 135.37370 4008 ft 171 kts 162°
2026-04-30 09:23 34.76611 135.37784 4332 ft 195 kts 160°
2026-04-30 09:24 34.75295 135.38468 4573 ft 220 kts 143°
2026-04-30 09:24 34.74321 135.40025 5002 ft 245 kts 115°
2026-04-30 09:24 34.73956 135.42117 5664 ft 262 kts 96°
2026-04-30 09:24 34.73980 135.44362 6420 ft 275 kts 91°
2026-04-30 09:25 34.74102 135.46730 7188 ft 282 kts 90°
2026-04-30 09:25 34.74246 135.49114 8166 ft 284 kts 89°
2026-04-30 09:25 34.74391 135.51558 8982 ft 292 kts 90°
2026-04-30 09:25 34.74529 135.54024 9784 ft 298 kts 90°
2026-04-30 09:26 34.74663 135.56575 10512 ft 308 kts 89°
2026-04-30 09:26 34.74797 135.59293 10785 ft 336 kts 89°
2026-04-30 09:26 34.74936 135.62253 10987 ft 365 kts 89°
2026-04-30 09:26 34.75083 135.65450 11298 ft 389 kts 89°
2026-04-30 09:27 34.75238 135.68804 11942 ft 403 kts 88°
2026-04-30 09:27 34.75394 135.72229 12904 ft 409 kts 88°
2026-04-30 09:27 34.75552 135.75686 13819 ft 417 kts 88°
2026-04-30 09:27 34.75712 135.79249 14650 ft 424 kts 88°
2026-04-30 09:28 34.75871 135.82854 15526 ft 430 kts 88°
2026-04-30 09:28 34.76029 135.86487 16320 ft 438 kts 88°
2026-04-30 09:28 34.76193 135.90276 17042 ft 448 kts 88°
2026-04-30 09:28 34.76355 135.94053 17777 ft 457 kts 88°
2026-04-30 09:29 34.76522 135.97964 18556 ft 463 kts 88°
2026-04-30 09:29 34.76632 136.00560 19046 ft 467 kts 88°
2026-04-30 09:29 34.76804 136.04531 19748 ft 473 kts 88°
2026-04-30 09:29 34.77048 136.08557 20411 ft 481 kts 87°
2026-04-30 09:30 34.77453 136.13986 21281 ft 490 kts 87°
2026-04-30 09:30 34.77673 136.16792 21718 ft 495 kts 87°
2026-04-30 09:30 34.77999 136.20984 22375 ft 501 kts 87°
2026-04-30 09:30 34.78315 136.25174 22979 ft 507 kts 88°
2026-04-30 09:31 34.78630 136.29471 23590 ft 513 kts 88°
2026-04-30 09:31 34.79043 136.35281 24283 ft 520 kts 88°
2026-04-30 09:31 34.79252 136.38268 24593 ft 524 kts 88°
2026-04-30 09:31 34.79561 136.42714 25069 ft 530 kts 88°
2026-04-30 09:32 34.79870 136.47196 25583 ft 534 kts 89°
2026-04-30 09:32 34.80179 136.51665 26133 ft 537 kts 89°
2026-04-30 09:32 34.80491 136.56204 26664 ft 541 kts 89°
2026-04-30 09:32 34.80805 136.60796 27097 ft 546 kts 89°
2026-04-30 09:33 34.81126 136.65464 27114 ft 557 kts 89°
2026-04-30 09:33 34.81450 136.70197 27111 ft 562 kts 89°
2026-04-30 09:33 34.81769 136.74889 27111 ft 562 kts 89°
2026-04-30 09:33 34.82091 136.79643 27105 ft 561 kts 89°
2026-04-30 09:34 34.82407 136.84371 27097 ft 560 kts 89°
2026-04-30 09:34 34.82716 136.89066 27081 ft 559 kts 89°
2026-04-30 09:34 34.82905 136.93792 27083 ft 556 kts 93°
2026-04-30 09:34 34.82784 136.98484 27092 ft 552 kts 99°
2026-04-30 09:35 34.82303 137.03111 27098 ft 550 kts 103°
2026-04-30 09:35 34.81746 137.07714 27102 ft 551 kts 103°
2026-04-30 09:35 34.81188 137.12334 27098 ft 552 kts 103°
2026-04-30 09:35 34.80642 137.16970 27102 ft 553 kts 102°
2026-04-30 09:36 34.80108 137.21624 27097 ft 553 kts 102°
2026-04-30 09:36 34.79589 137.26209 27086 ft 552 kts 102°
2026-04-30 09:36 34.79069 137.30840 27092 ft 551 kts 102°
2026-04-30 09:36 34.78550 137.35450 27096 ft 550 kts 102°
2026-04-30 09:37 34.78026 137.40078 27104 ft 549 kts 102°
2026-04-30 09:37 34.77500 137.44690 27106 ft 550 kts 102°
2026-04-30 09:37 34.76970 137.49309 27107 ft 551 kts 102°
2026-04-30 09:37 34.76438 137.53922 27112 ft 551 kts 102°
2026-04-30 09:38 34.75907 137.58493 27108 ft 552 kts 102°
2026-04-30 09:38 34.75368 137.63128 27108 ft 553 kts 102°
2026-04-30 09:38 34.74829 137.67771 27118 ft 554 kts 102°
2026-04-30 09:38 34.74323 137.72416 27124 ft 555 kts 100°
2026-04-30 09:39 34.73883 137.77088 27118 ft 556 kts 99°
2026-04-30 09:39 34.73468 137.81760 27131 ft 557 kts 99°
2026-04-30 09:39 34.73046 137.86450 27129 ft 557 kts 99°
2026-04-30 09:39 34.72606 137.91128 27131 ft 557 kts 100°
2026-04-30 09:40 34.72151 137.95820 27120 ft 557 kts 100°
2026-04-30 09:40 34.71701 138.00450 27128 ft 557 kts 99°
2026-04-30 09:40 34.71374 138.05137 27136 ft 558 kts 95°
2026-04-30 09:40 34.71356 138.09832 27134 ft 559 kts 91°
2026-04-30 09:41 34.71414 138.14624 27135 ft 559 kts 91°
2026-04-30 09:41 34.71477 138.19284 27127 ft 559 kts 91°
2026-04-30 09:41 34.71526 138.24005 27124 ft 558 kts 91°
2026-04-30 09:41 34.71558 138.28710 27130 ft 557 kts 92°
2026-04-30 09:42 34.71575 138.33420 27135 ft 556 kts 92°
2026-04-30 09:42 34.71582 138.38123 27139 ft 556 kts 92°
2026-04-30 09:42 34.71585 138.42834 27139 ft 555 kts 92°
2026-04-30 09:42 34.71586 138.47528 27146 ft 554 kts 92°
2026-04-30 09:43 34.71587 138.52161 27143 ft 554 kts 92°
2026-04-30 09:43 34.71588 138.56847 27146 ft 550 kts 92°
2026-04-30 09:43 34.71589 138.61446 26968 ft 540 kts 92°
2026-04-30 09:43 34.71588 138.66019 26340 ft 536 kts 91°
2026-04-30 09:44 34.71582 138.70492 25750 ft 531 kts 91°
2026-04-30 09:44 34.71574 138.74979 25157 ft 526 kts 91°
2026-04-30 09:44 34.71567 138.79424 24535 ft 522 kts 91°
2026-04-30 09:44 34.71558 138.83782 23957 ft 518 kts 91°
2026-04-30 09:45 34.71545 138.88171 23253 ft 514 kts 91°
2026-04-30 09:45 34.71527 138.92491 22624 ft 508 kts 91°
2026-04-30 09:45 34.71505 138.96722 22016 ft 502 kts 91°
2026-04-30 09:45 34.71487 139.00949 21420 ft 496 kts 91°
2026-04-30 09:46 34.71473 139.05112 20834 ft 490 kts 91°
2026-04-30 09:46 34.71456 139.09227 20263 ft 485 kts 91°
2026-04-30 09:46 34.71436 139.13321 19672 ft 480 kts 91°
2026-04-30 09:46 34.71412 139.17372 19078 ft 475 kts 91°
2026-04-30 09:47 34.71385 139.21330 18537 ft 470 kts 91°
2026-04-30 09:47 34.71357 139.25287 17922 ft 465 kts 91°
2026-04-30 09:47 34.71327 139.29202 17326 ft 460 kts 91°
2026-04-30 09:47 34.71298 139.33067 16761 ft 453 kts 91°
2026-04-30 09:48 34.71270 139.36887 16202 ft 448 kts 90°
2026-04-30 09:48 34.71372 139.40579 15613 ft 440 kts 81°
2026-04-30 09:48 34.72291 139.44077 15095 ft 431 kts 60°
2026-04-30 09:48 34.73782 139.47166 14496 ft 420 kts 57°
2026-04-30 09:49 34.75243 139.50200 14286 ft 408 kts 58°
2026-04-30 09:49 34.76604 139.53116 14130 ft 383 kts 58°
2026-04-30 09:49 34.77862 139.55853 13977 ft 357 kts 58°
2026-04-30 09:49 34.79033 139.58414 13723 ft 336 kts 58°
2026-04-30 09:50 34.80142 139.60842 13435 ft 330 kts 58°
2026-04-30 09:50 34.81246 139.63257 13236 ft 322 kts 57°
2026-04-30 09:50 34.82604 139.65365 12855 ft 312 kts 38°
2026-04-30 09:50 34.84289 139.67026 12365 ft 313 kts 34°
2026-04-30 09:51 34.86005 139.68662 12045 ft 312 kts 35°
2026-04-30 09:51 34.87694 139.70296 11774 ft 308 kts 36°
2026-04-30 09:51 34.89369 139.71939 11449 ft 308 kts 36°
2026-04-30 09:51 34.91029 139.73588 11117 ft 307 kts 37°
2026-04-30 09:52 34.92661 139.75222 10813 ft 306 kts 37°
2026-04-30 09:52 34.94299 139.76872 10522 ft 304 kts 38°
2026-04-30 09:52 34.95925 139.78514 10218 ft 304 kts 38°
2026-04-30 09:52 34.97554 139.80164 9908 ft 302 kts 38°
2026-04-30 09:53 34.99172 139.81805 9574 ft 301 kts 38°
2026-04-30 09:53 35.00766 139.83423 9278 ft 299 kts 38°
2026-04-30 09:53 35.02367 139.85051 8984 ft 297 kts 39°
2026-04-30 09:53 35.03952 139.86663 8685 ft 295 kts 39°
2026-04-30 09:54 35.05512 139.88252 8406 ft 294 kts 39°
2026-04-30 09:54 35.07083 139.89854 8110 ft 293 kts 39°
2026-04-30 09:54 35.08629 139.91431 7911 ft 287 kts 39°
2026-04-30 09:54 35.10170 139.93001 7548 ft 288 kts 40°
2026-04-30 09:55 35.11693 139.94550 7245 ft 288 kts 40°
2026-04-30 09:55 35.13237 139.96122 6979 ft 286 kts 40°
2026-04-30 09:55 35.14825 139.97560 6615 ft 284 kts 26°
2026-04-30 09:55 35.16749 139.98077 6215 ft 282 kts
2026-04-30 09:56 35.18691 139.98086 5959 ft 274 kts
2026-04-30 09:56 35.20553 139.98137 5967 ft 269 kts
2026-04-30 09:56 35.22430 139.98199 5969 ft 267 kts
2026-04-30 09:56 35.24252 139.98258 5946 ft 257 kts
2026-04-30 09:57 35.26000 139.98110 5938 ft 250 kts 338°
2026-04-30 09:57 35.27508 139.97095 5927 ft 247 kts 324°
2026-04-30 09:57 35.29021 139.95969 5598 ft 258 kts 328°
2026-04-30 09:57 35.30584 139.94898 5294 ft 256 kts 329°
2026-04-30 09:58 35.32130 139.93827 5055 ft 252 kts 329°
2026-04-30 09:58 35.33596 139.92793 4994 ft 239 kts 329°
2026-04-30 09:58 35.35000 139.91800 5008 ft 221 kts 329°
2026-04-30 09:58 35.36298 139.90879 4790 ft 216 kts 329°
2026-04-30 09:59 35.38901 139.89037 4292 ft 210 kts 330°
2026-04-30 09:59 35.41410 139.87256 3598 ft 204 kts 331°
2026-04-30 10:00 35.43734 139.85608 2799 ft 183 kts 332°
2026-04-30 10:00 35.44800 139.84853 2389 ft 176 kts 332°
2026-04-30 10:01 35.46865 139.83388 1968 ft 170 kts 332°
2026-04-30 10:01 35.47886 139.82665 1801 ft 165 kts 332°
2026-04-30 10:01 35.48862 139.81971 1358 ft 157 kts 332°
2026-04-30 10:02 35.50619 139.80723 741 ft 144 kts 330°
2026-04-30 10:02 35.51503 139.80096 558 ft 145 kts 330°
2026-04-30 10:02 35.52335 139.79473 376 ft 137 kts 329°
2026-04-30 10:02 35.53177 139.78898 205 ft 142 kts 330°
2026-04-30 10:03 35.54023 139.78305 32 ft 134 kts 326°
2026-04-30 10:03 35.54719 139.77814 30 ft 93 kts 330°
2026-04-30 10:03 35.55148 139.77511 30 ft 49 kts 330°
2026-04-30 10:03 35.55358 139.77437 29 ft 26 kts 355°
2026-04-30 10:04 35.55483 139.77434 28 ft 17 kts
2026-04-30 10:04 35.55573 139.77436 28 ft 6 kts
2026-04-30 10:04 35.55612 139.77455 28 ft 6 kts 40°
2026-04-30 10:04 35.55631 139.77503 29 ft 6 kts 74°
2026-04-30 10:05 35.55620 139.77555 29 ft 6 kts 128°
2026-04-30 10:05 35.55580 139.77588 29 ft 9 kts 149°
2026-04-30 10:05 35.55512 139.77634 29 ft 14 kts 152°
2026-04-30 10:05 35.55413 139.77703 29 ft 19 kts 149°
2026-04-30 10:06 35.55295 139.77788 29 ft 20 kts 149°
2026-04-30 10:06 35.55175 139.77873 29 ft 20 kts 150°
2026-04-30 10:06 35.55080 139.77943 29 ft 12 kts 149°
2026-04-30 10:06 35.55008 139.77996 29 ft 12 kts 148°
2026-04-30 10:07 35.54972 139.78040 29 ft 6 kts 99°
2026-04-30 10:07 35.55005 139.78076 29 ft 7 kts 26°
2026-04-30 10:07 35.55040 139.78098 29 ft 4 kts 26°
2026-04-30 10:07 35.55046 139.78101 29 ft 0 kts 24°